Regional Weather Roundup
Issued by NWS

Home | Current Version | Previous Version | Graphics & Text | Print | Product List | Glossary On
Versions: 1 2 3 4 5 6 7 8 9 10 11 12 13 14 15 16 17 18 19 20 21 22 23 24 25 26 27 28 29 30 31 32 33 34 35 36 37 38 39 40 41 42 43 44 45 46 47 48 49 50
654
ASUS45 KBOU 221610
RWRCO

WEATHER ROUNDUP FOR COLORADO
NATIONAL WEATHER SERVICE DENVER/BOULDER CO
900 AM MST MON JAN 22 2018

NOTE: "FAIR" INDICATES FEW OR NO CLOUDS BELOW 12000 FEET WITH NO
SIGNIFICANT WEATHER AND/OR OBSTRUCTIONS TO VISIBILITY.

COZ001>005-013-030-031-221700-
...NORTHWEST COLORADO...

CITY           SKY/WX    TMP DP  RH WIND       PRES   REMARKS
CRAIG          FAIR      -3  -7  82 CALM      30.28R
HAYDEN         FAIR     N/A N/A N/A E9        30.27R
MEEKER         FAIR       1  -3  83 E6        30.27R WCI -10
RABBIT EARS PA CLOUDY   N/A N/A N/A W13G22    30.05R HAZE
STEAMBOAT SPGS PTSUNNY    4   1  85 CALM      30.24R
WALDEN         FAIR       1  -4  78 SE6       30.15R WCI -10
$$

COZ006>008-011-221700-
...WEST CENTRAL VALLEYS...

CITY           SKY/WX    TMP DP  RH WIND       PRES   REMARKS
GRAND JUNCTION FAIR      14  10  84 E12       30.33R WCI   0
MONTROSE       FAIR      16   7  67 SE6       30.34R WCI   7
EAGLE          FAIR       9   5  84 NE3       30.31R
RIFLE          FAIR      16  10  77 NE3       30.33R
DELTA          FAIR      19  11  70 CALM      30.35R
NUCLA          FAIR      12   5  73 CALM      30.34R
$$

COZ017>023-064>068-221700-
...SOUTHWEST COLORADO...

CITY           SKY/WX    TMP DP  RH WIND       PRES   REMARKS
DURANGO        FAIR       8   6  92 NE5       30.22R WCI   0
CORTEZ         FAIR      10   4  76 E12       30.26R WCI  -5
PAGOSA SPRINGS FAIR     N/A N/A N/A CALM      30.19R
TELLURIDE      FAIR       7   1  78 E3        30.18R
WOLF CREEK PAS FAIR       9 -18  28 N8        30.12R WCI  -4
$$

COZ009-010-012-014-032>034-037-058>063-221700-
...CENTRAL COLORADO...

CITY           SKY/WX    TMP DP  RH WIND       PRES   REMARKS
ASPEN          FAIR      11   2  67 SE7       30.20S WCI   0
BUENA VISTA    FAIR      15  -1  49 NW15      30.11R WCI   0
COPPER MTN     NOT AVBL
BERTHOUD PASS  CLOUDY    -8 -18  59 N16G28    29.95R WCI -30
COTTONWOOD PAS   N/A     19  -4  35 W14G21    30.05R WCI   6
GUNNISON       FAIR       3  -3  76 CALM      30.26R
KREMMLING      FAIR       9   1  72 SE3       30.24R
LEADVILLE      FAIR       3  -3  76 NE8       30.09R WCI -10
MONARCH PASS   CLOUDY    -2  -8  78 SW21G30   30.11R WCI -25
SALIDA         FAIR      12   1  63 W8        30.22R WCI   0
SUNLIGHT       FAIR     N/A N/A N/A MISG      30.15R
WILKERSON PASS FAIR       9  -6  52 N16G32    29.97R WCI  -9
$$

COZ069>075-221700-
...SAN LUIS VALLEY/SANGRE DE CRISTO MOUNTAINS...

CITY           SKY/WX    TMP DP  RH WIND       PRES   REMARKS
ALAMOSA        FAIR       9   2  73 SW7       30.17R WCI  -2
DEL NORTE      FAIR      17  -3  40 W9        30.14R WCI   6
LA VETA PASS   LGT SNOW   7   0  72 SW21        N/A  WCI -13
SAGUACHE       FAIR      18   3  53 N18G24    30.16R WCI   2
$$

COZ035-036-038>040-221700-
...NORTHERN COLORADO FRONT RANGE...

CITY           SKY/WX    TMP DP  RH WIND       PRES   REMARKS
DENVER INTL AP FAIR      22   6  50 SW12      29.99S WCI  10
DMNS CITY PARK NOT AVBL
AURORA         MOSUNNY   23   6  48 W8        30.00R WCI  14
FRONT RANGE AP MOSUNNY   23   9  54 SW10      30.00R WCI  12
ERIE MUNI ARPT FAIR      26   8  47 W7        30.06R WCI  18
BOULDER MUN AP FAIR      34   5  29 SW9       30.00R WCI  26
CENTENNIAL     FAIR      23   7  50 W10       30.00R WCI  12
BROOMFIELD     MOSUNNY   30   7  37 W25G32    29.99R WCI  16
FORT COLLINS   FAIR      14   8  77 SE7       30.00R WCI   4
LONGMONT       FAIR      19   7  59 CALM      30.02S
$$

COZ041-046-047-076>085-087-088-221700-
...PIKES PEAK/PALMER DIVIDE AND SOUTHERN FOOTHILLS...

CITY           SKY/WX    TMP DP  RH WIND       PRES   REMARKS
COLO. SPRINGS  FAIR      30   2  30 NW12      30.00R WCI  20
A. F. ACADEMY  SUNNY     29  -2  26 NW14      29.98R WCI  18
SCHRIEVER AFB  FAIR      26   2  35 NW15      29.99R WCI  14
CHEYENNE MTN   FAIR      31  -9  17 NW16G30   29.91R WCI  20
ELLICOTT         N/A    N/A N/A N/A N6        29.97
FALCON         FAIR      28  -1  28 NW20G28   29.97S WCI  14
FORT CARSON    FAIR      27   1  33 CALM      29.99R
LIMON          FAIR      21  10  62 NW16      29.97R WCI   7
MONUMENT HILL  FAIR      18   3  53 W14       29.99R WCI   4
CANON CITY     FAIR      30   9  40 W16G24    30.08R WCI  19
WALSENBURG     NOT AVBL
TRINIDAD       FAIR      28  10  46 W7        30.05R WCI  21
$$

COZ042>045-048>051-090-091-221700-
...NORTHEAST COLORADO...

CITY           SKY/WX    TMP DP  RH WIND       PRES   REMARKS
GREELEY ARPT   FAIR      19  12  74 SW5       30.03R WCI  12
AKRON          FAIR      23  12  62 NW23      29.96R WCI   7
BURLINGTON     FAIR      24  16  71 NW24G36   29.92R WCI   8
WRAY           FAIR      27  16  63 NW20      29.96R WCI  13
YUMA           FAIR      23  14  68 NW21      29.96R WCI   8
STERLING       FAIR      27  14  59 NW18      29.98R WCI  13
HOLYOKE        FAIR      28  18  64 NW20G28   29.94R WCI  15
FORT MORGAN    FAIR      25   9  49 NW20      30.01R WCI  11
$$

COZ086-089-092>099-221700-
...SOUTHEAST COLORADO...

CITY           SKY/WX    TMP DP  RH WIND       PRES   REMARKS
PUEBLO         FAIR      33   7  33 W23       30.04R WCI  21
LA JUNTA       FAIR      28  13  53 W9        30.06R WCI  19
LAMAR          FAIR      26  14  60 W20       30.01R WCI  12
SPRINGFIELD      N/A     29  15  56 NW22G31   29.99R WCI  15
$$




USA.gov is the U.S. government's official web portal to all federal, state and local government web resources and services.